This is the latest recevied weather packets stored in our database for station/object N9GKE-1. If no packets are shown the sender has not sent any weather packets the latest 10 day(s).
| Time | Temp. | Humidity | Pressure | Rain* | Wind** | Luminosity | Snow |
|---|---|---|---|---|---|---|---|
| 1777727349 | 6.11° C | 62% | 1020 hPa | 0.25 mm | - | - | - |
| 1777726977 | 5.56° C | 61% | 1020 hPa | 0.25 mm | - | - | - |
| 1777726750 | 5.56° C | 61% | 1019.9 hPa | 0.25 mm | - | - | - |
| 1777726377 | 5.56° C | 63% | 1019.9 hPa | 0.25 mm | - | - | - |
| 1777726149 | 5.56° C | 66% | 1019.9 hPa | 0.25 mm | - | - | - |
| 1777725778 | 5.56° C | 66% | 1019.9 hPa | 0.25 mm | - | - | - |
| 1777725549 | 5° C | 67% | 1019.9 hPa | 0.25 mm | - | - | - |
| 1777725178 | 5° C | 72% | 1019.8 hPa | 0 mm | - | - | - |
| 1777724578 | 4.44° C | 73% | 1019.8 hPa | 0 mm | - | - | - |
| 1777723977 | 3.89° C | 79% | 1019.8 hPa | 0 mm | - | - | - |
| 1777723749 | 3.89° C | 82% | 1019.8 hPa | 0 mm | - | - | - |
| 1777723377 | 3.33° C | 87% | 1019.7 hPa | 0 mm | - | - | - |
| 1777723150 | 2.78° C | 90% | 1019.6 hPa | 0 mm | - | - | - |
| 1777722778 | 1.67° C | 92% | 1019.5 hPa | 0 mm | - | - | - |
| 1777722550 | 1.11° C | 91% | 1019.5 hPa | 0 mm | - | - | - |
| 1777722178 | 0.56° C | 90% | 1019.5 hPa | 0 mm | - | - | - |
| 1777721950 | 0.56° C | 90% | 1019.5 hPa | 0 mm | - | - | - |
| 1777721577 | 0.56° C | 89% | 1019.5 hPa | 0 mm | - | - | - |
| 1777721350 | 0.56° C | 88% | 1019.5 hPa | 0 mm | - | - | - |
| 1777720978 | 0.56° C | 88% | 1019.5 hPa | 0 mm | - | - | - |
| 1777720749 | 0.56° C | 88% | 1019.5 hPa | 0 mm | - | - | - |
| 1777720378 | 0.56° C | 88% | 1019.4 hPa | 0 mm | - | - | - |
| 1777719777 | 1.11° C | 87% | 1019.4 hPa | 0 mm | - | - | - |
| 1777719552 | 1.11° C | 87% | 1019.4 hPa | 0 mm | - | - | - |
| 1777719177 | 1.11° C | 87% | 1019.4 hPa | 0 mm | - | - | - |
* Rain latest hour (hover to see other rain measurements)
** Current wind speed in m/s (hover to see current wind gust speed)